Regional Weather Roundup
Issued by NWS

Home | Current Version | Previous Version | Text Only | Print | Product List | Glossary On
Versions: 1 2 3 4 5 6 7 8 9 10 11 12 13 14 15 16 17 18 19 20 21 22 23 24 25 26 27 28 29 30 31 32 33 34 35 36 37 38 39 40 41 42 43 44 45 46 47 48 49 50
000
ASUS43 KDTX 191110
RWRMI
MICHIGAN HOURLY REGIONAL WEATHER ROUNDUP
NATIONAL WEATHER SERVICE DETROIT/PONTIAC MI
700 AM EDT FRI SEP 19 2014

NOTE: "FAIR" INDICATES FEW OR NO CLOUDS BELOW 12,000 FEET WITH NO
SIGNIFICANT WEATHER AND/OR OBSTRUCTION TO VISIBILITY.

MIZ047>049-052>055-059>063-066>070-074>076-081>083-191200-
SOUTHEAST LOWER MICHIGAN

CITY           SKY/WX    TMP DP  RH WIND       PRES   REMARKS
ADRIAN         CLEAR     43  42  97 NE5       30.24R
ALMA           FOG       37  37  99 CALM      30.25S VSB 3/4
ANN ARBOR      FOG       35  34  96 CALM      30.24R VSB 1/2
BAD AXE        CLEAR     31  31 100 CALM      30.27R
DETROIT CITY   CLEAR     45  39  79 N5        30.25R
DETROIT        PTCLDY    43  40  89 N3        30.24S
FLINT          CLEAR     40  38  93 E3        30.26R
GROSSE ILE     CLEAR     45  43  93 CALM      30.23R FOG
HILLSDALE      CLEAR     46  46 100 E3        30.23R FOG
HOWELL         CLEAR     40  39  99 CALM      30.24R

CITY           SKY/WX    TMP DP  RH WIND       PRES   REMARKS
JACKSON        CLEAR     44  42  93 CALM      30.24R
LAMBERTVILLE   CLEAR     46  45  93 CALM      30.23S FOG
LANSING        CLEAR     42  40  92 E3        30.24R
LAPEER         NOT AVBL
MASON          CLEAR     40  40  97 CALM      30.24R
MONROE         CLEAR     43  41  93 CALM      30.22S FOG
MT. CLEMENS    CLEAR     39  39 100 N8        30.23R
PONTIAC        CLEAR     40  37  89 CALM      30.24R
PORT HOPE        N/A     38  37  97 SW3       30.25R
PORT HURON     MOCLDY    34  34 100 CALM      30.25S FOG
TRI CITIES     PTCLDY    39  37  92 CALM      30.26S
YPSILANTI      CLEAR     44  38  79 NE5       30.25R
$$
MIZ043>046-050>051-056>058-064>065-071>073-077>080-191200-
SOUTHWEST LOWER MICHIGAN

CITY           SKY/WX    TMP DP  RH WIND       PRES   REMARKS
BATTLE CREEK   CLEAR     48  45  89 CALM      30.23R FOG
BENTON HARBOR  CLEAR     51  50  96 SE6       30.20R FOG
BIG RAPIDS     CLOUDY    41  41 100 CALM      30.22S
COLDWATER      CLEAR     47  46  97 E5        30.22R FOG
HOLLAND        CLEAR     48  45  89 E5        30.21R FOG
GRAND RAPIDS   FOG       49  48  97 E8        30.22R VSB 1/4
KALAMAZOO      CLEAR     46  43  89 CALM      30.23R FOG
MARSHALL       CLEAR     44  44  99 E3        30.23R FOG
MUSKEGON       CLEAR     47  44  90 E6        30.20S FOG
$$
MIZ016>042-191200-
NORTHERN LOWER MICHIGAN

CITY           SKY/WX    TMP DP  RH WIND       PRES   REMARKS
ALPENA         CLEAR     33  31  92 CALM      30.26S
BEAVER ISLAND  CLOUDY    53  49  89 S7        30.18S
CADILLAC       CLEAR     42  39  91 SE6       30.21S
CHARLEVOIX     CLOUDY    47  44  87 SE9       30.23R
FRANKFORT      SUNNY     49  43  80 SE5       30.19R
GAYLORD        PTCLDY    44  41  89 S8        30.22S
GRAYLING       PTCLDY    44  42  93 SE6       30.23F
HARBOR SPRINGS CLOUDY    47  42  83 CALM      30.20S
HOUGHTON LAKE  CLEAR     39  37  92 CALM      30.24R
MANISTEE       CLEAR     45  39  81 SE7       30.20S
OSCODA         CLEAR     32  32  99 CALM      30.25S
PELLSTON       CLOUDY    47  42  83 SE6       30.21S
TRAVERSE CITY  MOCLDY    48  41  76 VRB7      30.19S
$$
MIZ007>008-015-191200-
EASTERN UPPER MICHIGAN

CITY           SKY/WX    TMP DP  RH WIND       PRES   REMARKS
KINROSS        CLOUDY    46  45  93 SE12      30.20S
MACKINAC ISLAN CLOUDY    48  42  80 S12G20    30.21R
NEWBERRY       CLOUDY    49  48  96 S13       30.16R FOG
S. S. MARIE    CLOUDY    46  41  82 SE7       30.21S
$$
MIZ004>006-011>014-085-191200-
CENTRAL UPPER MICHIGAN

CITY           SKY/WX    TMP DP  RH WIND       PRES   REMARKS
MANISTIQUE     CLOUDY    56  54  92 S12G20    30.14R
ESCANABA       CLOUDY    41  39  93 W3        30.14R
MENOMINEE      CLOUDY    52  50  93 SW8       30.13R
SAWYER-GWINN   CLOUDY    46  45  93 S14G21    30.09F
$$
MIZ001>003-009>011-084-191200-
WESTERN UPPER MICHIGAN

CITY           SKY/WX    TMP DP  RH WIND       PRES   REMARKS
IRON MOUNTAIN  MOCLDY    47  45  93 S7        30.09F
HOUGHTON       PTCLDY    49  46  90 S14       29.99F FOG
COPPER HARBOR    N/A     50  47  89 SW9G17    29.98F
IRONWOOD       CLOUDY    54  52  94 S12G18    29.96S
$$

ABBREVIATIONS USED IN REMARKS
   TC - TEMPERATURE IN CELSIUS
  WCI - WIND CHILL INDEX
   HX - HEAT INDEX
  VSB - VISIBILITY




USA.gov is the U.S. government's official web portal to all federal, state and local government web resources and services.